Location: Deardoffs Mills (historical)
(40.6353°N, 81.5590°W)
Time: 08:04:40
(UTC+00:00)

Envisat - Pass Details

Date: 02 October 2022
Orbit: 763 x 765 km, 98.2° (Epoch: 02 December)

Event Time Altitude Azimuth Distance (km) Brightness Sun altitude
Rises 09:37:10 0° 15° (NNE) 3,241 6.6 -20.9°
Reaches altitude 10° 09:39:30 10° 18° (NNE) 2,311 5.9 -20.5°
Maximum altitude 09:44:35 70° 102° (ESE) 813 3.2 -19.5°
Drops below altitude 10° 09:49:38 10° 186° (S) 2,293 5.3 -18.6°
Sets 09:51:56 0° 189° (S) 3,215 6.0 -18.2°
